Akron Canton, OH

9:25 PM EST on February 24, 2018 (GMT -0500)
Akron-Canton Regional

Weather History for KCAK - September, 1959

Change the Weather History Date:

Saturday, September 12, 1959

  Actual Average Record
Temperature  
Mean Temperature 58 °F 65 °F  
Max Temperature 71 °F 75 °F 94 °F (1931)
Min Temperature 46 °F 55 °F 38 °F (1995)
Degree Days  
Heating Degree Days 6 3  
Month to date heating degree days 20  
Since 1 July heating degree days 40  
Cooling Degree Days 0 2  
Month to date cooling degree days 40  
Year to date cooling degree days 622  
Growing Degree Days 8 (Base 50)    
Moisture  
Dew Point 47 °F    
Average Humidity 73    
Maximum Humidity 97    
Minimum Humidity 47    
Precipitation  
Precipitation 0.00 in 0.12 in 1.55 in (2015)
Month to date precipitation 1.42  
Year to date precipitation 28.62  
Snow  
Snow 0.00 in 0.00 in - ()
Month to date snowfall 0.0  
Since 1 July snowfall 0.0  
Since 1 September snowfall 0.0  
Snow Depth -    
Sea Level Pressure  
Sea Level Pressure 30.34 in    
Wind  
Wind Speed 7 mph (NNE)    
Max Wind Speed 15 mph    
Max Gust Speed -    
Visibility 10 miles    
Events      
T = Trace of Precipitation, MM = Missing Value Source: NWS Daily Summary

Daily Weather History Graph

Daily Weather History Graph

Search for Another Location

Airport or City:

Trip Planner

Search our weather history database for the weather conditions in past years. The results will help you decide how hot, cold, wet, or windy it might be!

Date:

Astronomy

Sep. 12, 1959 Rise Set
Actual Time 7:02 AM EDT 7:41 PM EDT
Civil Twilight 6:34 AM EDT 8:08 PM EDT
Nautical Twilight 6:02 AM EDT 8:41 PM EDT
Astronomical Twilight 5:28 AM EDT 9:14 PM EDT
Moon 4:54 PM EDT (9/12) 2:22 AM EDT (9/12)
Length of Visible Light 13h 33m
Length of Day
12h 38m
Waxing Gibbous, 79% of the Moon is Illuminated
Sep 12
Waxing Gibbous
Sep 16
Full
Sep 24
Last Quarter
Oct 2
New
Oct 9
First Quarter

Hourly Weather History & Observations

Time (EDT) Temp. Dew Point Humidity Pressure Visibility Wind Dir Wind Speed Gust Speed Precip Events Conditions
12:00 AM 51.1 °F 48.9 °F 92% 30.33 in 7.0 mi North 9.2 mph - N/A   Drizzle
1:00 AM 48.9 °F 46.9 °F 93% 30.33 in 7.0 mi North 5.8 mph - N/A   Drizzle
2:00 AM 50.0 °F 46.9 °F 89% 30.32 in 7.0 mi NE 5.8 mph - N/A   Drizzle
3:00 AM 48.9 °F 46.0 °F 90% 30.32 in 7.0 mi North 4.6 mph - N/A   Drizzle
4:00 AM 46.9 °F 46.0 °F 97% 30.32 in 7.0 mi North 5.8 mph - N/A   Drizzle
5:00 AM 48.0 °F 46.0 °F 93% 30.33 in 7.0 mi NE 4.6 mph - N/A   Drizzle
6:00 AM 46.9 °F 46.0 °F 97% 30.34 in 7.0 mi NE 5.8 mph - N/A   Drizzle
7:00 AM 46.9 °F 45.0 °F 93% 30.36 in 7.0 mi Calm Calm - N/A   Drizzle
8:00 AM 48.0 °F 46.0 °F 93% 30.37 in 4.0 mi Calm Calm - N/A   Drizzle
9:00 AM 53.1 °F 46.9 °F 80% 30.37 in 6.0 mi SE 5.8 mph - N/A   Drizzle
10:00 AM 57.0 °F 48.0 °F 72% 30.37 in 8.0 mi SE 4.6 mph - N/A   Drizzle
11:00 AM 59.0 °F 46.9 °F 64% 30.39 in 10.0 mi ESE 6.9 mph - N/A   Drizzle
12:00 PM 62.1 °F 45.0 °F 53% 30.37 in 10.0 mi NE 6.9 mph - N/A   Drizzle
1:00 PM 63.0 °F 44.1 °F 50% 30.36 in 15.0 mi East 5.8 mph - N/A   Drizzle
2:00 PM 66.9 °F 48.9 °F 52% 30.34 in 15.0 mi NNE 6.9 mph - N/A   Drizzle
3:00 PM 68.0 °F 51.1 °F 55% 30.32 in 15.0 mi NNE 8.1 mph - N/A   Drizzle
4:00 PM 71.1 °F 50.0 °F 47% 30.30 in 15.0 mi NE 6.9 mph - N/A   Drizzle
5:00 PM 70.0 °F 52.0 °F 53% 30.30 in 15.0 mi North 6.9 mph - N/A   Drizzle
6:00 PM 69.1 °F 53.1 °F 57% 30.30 in 15.0 mi North 15.0 mph - N/A   Drizzle
7:00 PM 64.9 °F 52.0 °F 63% 30.31 in 15.0 mi North 12.7 mph - N/A   Drizzle
8:00 PM 60.1 °F 50.0 °F 69% 30.32 in 15.0 mi North 10.4 mph - N/A   Drizzle
9:00 PM 55.0 °F 45.0 °F 69% 30.32 in 15.0 mi North 9.2 mph - N/A   Drizzle
10:00 PM 53.1 °F 44.1 °F 71% 30.33 in 10.0 mi North 9.2 mph - N/A   Drizzle
11:00 PM 53.1 °F 43.0 °F 69% 30.33 in 7.0 mi North 8.1 mph - N/A   Drizzle